Location: Champaign/Urbana Astronomical Society Observatory
(40.0333°N, 88.2833°W)
Time: 20:19:20
(UTC-05:00)

FALCONSAT 3 - Visible Passes

Search period start: 20 May 2019 00:00
Search period end: 30 May 2019 00:00
Orbit: 455 x 460 km, 35.4° (Epoch: 20 May)

Date Brightness Start Highest point End Pass type
(mag) Time Alt. Az. Time Alt. Az. Time Alt. Az.
25 May ? 04:23:02 11° S 04:24:56 15° SSE 04:27:10 10° ESE visible
26 May ? 03:48:10 14° SSE 03:48:24 14° SSE 03:50:25 10° ESE visible
27 May ? 03:13:17 11° SE 03:13:17 11° SE 03:13:37 10° SE visible
27 May ? 04:46:57 10° SW 04:50:14 31° SSE 04:53:30 10° ESE visible
28 May ? 04:12:03 21° SSW 04:13:41 30° SSE 04:16:54 10° ESE visible
29 May ? 03:37:07 28° SSE 03:37:07 28° SSE 03:40:18 10° ESE visible
